Regional Weather Roundup
Issued by NWS

Home | Current Version | Previous Version | Graphics & Text | Print | Product List | Glossary On
Versions: 1 2 3 4 5 6 7 8 9 10 11 12 13 14 15 16 17 18 19 20 21 22 23 24 25 26 27 28 29 30 31 32 33 34 35 36 37 38 39 40 41 42 43 44 45 46 47 48 49 50
000
ASUS43 KFSD 220610
RWRSD

WEATHER ROUNDUP FOR SOUTH DAKOTA
NATIONAL WEATHER SERVICE SIOUX FALLS SD
100 AM CDT SAT JUL 22 2017

NOTE: "FAIR" INDICATES FEW OR NO CLOUDS BELOW 12,000 FEET WITH NO
SIGNIFICANT WEATHER AND/OR OBSTRUCTIONS TO VISIBILITY.


SDZ001>005-009-010-012>017-220700-
NORTHWEST AND NORTH CENTRAL SOUTH DAKOTA

CITY           SKY/WX    TMP DP  RH WIND       PRES   REMARKS
BUFFALO          N/A     69  42  37 N9        29.89R
FAITH            N/A     71  44  37 N9        29.90S
MOBRIDGE       CLEAR     69  65  86 N7        29.83R
$$

SDZ012>016-024>037-041>051-057-063-072>074-220700-
SOUTHWEST AND SOUTH CENTRAL SOUTH DAKOTA

CITY           SKY/WX    TMP DP  RH WIND       PRES   REMARKS
RAPID CTY ARPT CLOUDY    69  44  40 W7        29.96R
PIERRE         PTCLDY    73  66  78 NE7       29.81R
CUSTER         CLOUDY    63  40  42 S6        30.15R
ELLSWORTH AFB  CLOUDY    73  41  31 W7        29.96R
PHILIP         MOCLDY    79  47  32 N15       29.86S
PINE RIDGE     CLOUDY    67  63  87 CALM      29.97S
SPEARFISH      FAIR      64  39  39 SW9       30.03S
WINNER         FAIR      83  57  41 W13       29.83R
$$

SDZ004>011-016>023-039-040-220700-
NORTHEAST SOUTH DAKOTA

CITY           SKY/WX    TMP DP  RH WIND       PRES   REMARKS
ABERDEEN       CLOUDY    69  66  90 SW3       29.81R
WATERTOWN      TSTM      66  66 100 S15G28    29.89R VSB 1/2
BROOKINGS      CLOUDY    75  72  90 SE12      29.81S
SISSETON         N/A     75  70  84 CALM      29.79S
$$

SDZ017-020-022-023-036>040-048>070-220700-
SOUTHEAST SOUTH DAKOTA

CITY           SKY/WX    TMP DP  RH WIND       PRES   REMARKS
SIOUX FALLS    MOCLDY    76  74  93 E8        29.81R
HURON          TSTM      68  67  96 S8        29.83F
CHAMBERLAIN    PTCLDY    81  75  82 NE12G29   29.80R
MITCHELL       MOCLDY    76  73  91 NW31G45   29.86R THUNDER
YANKTON        CLEAR     76  75  97 NE8       29.80R FOG
$$

ABBREVIATIONS USED IN REMARKS
   TC - TEMPERATURE IN CELSIUS
  WCI - WIND CHILL INDEX
   HX - HEAT INDEX
  VSB - VISIBILITY





USA.gov is the U.S. government's official web portal to all federal, state and local government web resources and services.